Location: Irma
(52.9170°N, 111.2330°W)
Time: 13:54:50
(UTC-06:00)

Daily predictions for brighter satellites

Satellite Brightness Start Highest point End
(mag) Time Altitude Azimuth Time Altitude Azimuth Time Altitude Azimuth
USA 229 DEB 4.0 22:29:39 10° SW 22:36:38 80° NW 22:43:44 10° NE
USA 229 4.0 22:29:45 10° SW 22:36:44 80° NW 22:43:51 10° NE
Cosmos 2058 3.0 22:35:19 10° SSW 22:39:25 82° WNW 22:43:34 10° N
Cosmos 2242 Rocket 3.7 22:36:34 10° NNW 22:41:03 86° W 22:45:34 10° S
Cosmos 292 Rocket 4.1 22:36:43 10° NNW 22:41:28 64° WSW 22:46:10 10° SSE
Cosmos 1862 Rocket 3.9 22:38:12 10° N 22:42:28 51° ENE 22:46:42 10° SSE
Cosmos 2227 Rocket 3.1 22:39:49 10° SSE 22:44:38 29° ESE 22:49:29 10° NE
Cosmos 2150 Rocket 4.2 22:40:05 10° S 22:45:27 60° ESE 22:50:50 10° NNE
Cosmos 1437 4.4 22:43:20 10° SW 22:46:25 37° WNW 22:49:32 10° N
Sich 1 3.1 22:42:45 10° S 22:47:09 76° E 22:51:33 10° NNE
CARTOSAT-1 3.8 22:45:47 10° SSE 22:50:02 61° ENE 22:54:19 10° N
CZ-4C R/B 3.8 22:44:01 10° NW 22:50:11 43° NNE 22:57:07 10° E
COSMOS 2455 3.1 22:44:36 10° NW 22:50:40 71° NE 22:56:41 10° SE
Meteor 1-11 4.4 22:46:13 10° SSW 22:51:59 88° WNW 22:57:44 10° NNE
Cosmos 1633 Rocket 3.0 22:47:57 10° S 22:52:20 81° E 22:56:44 10° NNE
ATLAS 5 CENTAUR R/B 4.1 22:48:05 10° WNW 22:52:46 32° NNW 22:57:52 10° NE
SAR-Lupe-2 4.0 22:49:46 10° SE 22:53:14 49° ENE 22:56:44 10° N
SL-16 R/B 2.6 22:48:25 10° NNW 22:54:03 57° NE 22:59:40 10° SE
Landsat 7 3.9 22:49:57 10° SSE 22:54:43 88° ENE 22:59:31 10° NNW
Cosmos 2333 Rocket 2.5 22:49:32 10° NW 22:55:17 71° WSW 23:01:01 10° SSE
Cosmos 1346 4.1 22:52:36 10° SSE 22:55:18 30° E 22:58:02 10° NNE
Cosmos 1455 2.3 22:51:41 10° N 22:55:29 65° ENE 22:59:16 10° SSE
NOSS 3-1 (A) 3.6 22:50:05 10° SSW 22:55:56 55° SE 23:02:31 10° NE
USA 245 3.8 22:54:13 10° SSW 22:56:15 26° W 22:58:14 10° NW
ERBS 3.9 22:59:42 10° S 23:02:07 18° SE 23:04:32 10° E
COSMOS 2428 4.3 23:01:57 10° NW 23:06:40 27° WSW 23:11:21 10° SSW
Cosmos 1726 3.8 23:04:29 10° NNW 23:07:51 31° W 23:11:13 10° SSW
DELTA 2 DEB (DPAF) 4.5 23:03:44 10° S 23:08:12 66° WSW 23:12:42 10° NNW
Aureole 2 Rocket 4.3 23:06:29 10° N 23:08:49 19° NE 23:11:16 10° ESE
DMSP B5D2-2 4.5 23:04:33 10° NNE 23:09:36 45° E 23:14:35 10° S
Cosmos 2219 Rocket 3.0 23:05:14 10° NW 23:10:32 45° WSW 23:15:50 10° S
ARGOS 3.9 23:05:19 10° S 23:10:33 50° W 23:15:48 10° NNW
Terra 1.9 23:05:49 10° SSE 23:10:35 88° ENE 23:15:23 10° NNW
Cosmos 2297 Rocket 3.0 23:06:25 10° S 23:11:24 33° ESE 23:16:24 10° NE
IGS 5A 3.5 23:12:55 10° SSE 23:17:06 87° WSW 23:21:19 10° NNW
Spot 4 3.9 23:13:36 10° SSE 23:18:26 84° ENE 23:23:20 10° NNW
ATLAS 2AS CENTAUR R/B 3.5 23:11:38 10° S 23:18:39 42° ESE 23:26:05 10° NE
COS B Rocket 4.5 23:16:47 10° NNE 23:20:06 28° E 23:23:17 12° SE
Cosmos 1900 4.4 23:15:52 10° NW 23:20:53 73° SW 23:25:23 12° SSE
Cosmos 1869 3.4 23:18:11 10° NNW 23:22:16 81° W 23:26:11 11° S
Tiangong 1 3.1 23:21:51 10° SSW 23:23:07 12° S 23:23:07 12° S
Cosmos 220 Rocket 4.0 23:20:33 10° SSW 23:24:59 85° ESE 23:29:28 10° NNE
Meteor 1-4 Rocket 4.5 23:22:09 10° NW 23:25:20 26° W 23:28:28 10° SSW
ATLAS 3B R/B 2.8 23:19:06 10° NW 23:26:15 74° SW 23:32:30 12° SSE
Cosmos 1603 4.5 23:22:32 10° NNW 23:28:01 46° NE 23:33:31 10° ESE
Cosmos 1937 Rocket 3.6 23:26:41 10° SSW 23:31:56 86° WNW 23:37:09 10° NNE
Okean 1-7 3.7 23:28:08 10° N 23:32:15 43° ENE 23:35:44 13° SE
CZ-4 R/B 4.4 23:28:06 10° N 23:33:02 63° WNW 23:37:50 10° SSW
ALOS 2 4.2 23:30:36 10° ESE 23:34:09 25° ENE 23:37:44 10° N
USA 238 DEB 3.9 23:31:29 10° NW 23:38:36 81° NE 23:45:38 10° SE
USA 238 3.9 23:31:35 10° NW 23:38:41 81° NE 23:45:44 10° SE
Cosmos 1241 Rocket 4.5 23:34:16 10° SSW 23:40:22 62° SE 23:46:36 10° NE
Cosmos 990 Rocket 3.9 23:35:47 10° SSW 23:40:55 85° ESE 23:46:07 10° NNE
NOSS 3-1 (C) 3.7 23:35:49 10° SW 23:41:57 79° NW 23:48:54 10° NE
Cosmos 2237 Rocket 3.2 23:38:29 10° NW 23:43:44 38° WSW 23:48:54 10° S
Cosmos 1703 Rocket 3.5 23:39:21 10° N 23:43:44 83° ENE 23:47:23 15° SSE
Cosmos 2219 4.5 23:39:02 10° WSW 23:44:32 45° NW 23:50:02 10° NNE
Cosmos 1470 Rocket 4.0 23:40:50 10° SSW 23:45:07 61° WNW 23:49:26 10° N
Cosmos 1933 Rocket 4.0 23:41:49 10° SSW 23:46:14 63° WNW 23:50:41 10° N
Cosmos 2251 Rocket 4.1 23:42:57 10° NNW 23:48:13 53° ENE 23:52:57 12° SE
Cosmos 1626 2.7 23:51:17 10° SSW 23:55:00 56° WNW 23:58:44 10° N
